Regional Weather Roundup
Issued by NWS

Home | Current Version | Previous Version | Graphics & Text | Print | Product List | Glossary On
Versions: 1 2 3 4 5 6 7 8 9 10 11 12 13 14 15 16 17 18 19 20 21 22 23 24 25 26 27 28 29 30 31 32 33 34 35 36 37 38 39 40 41 42 43 44 45 46 47 48 49 50
000
ASUS43 KLOT 241810
RWRIL

ILLINOIS REGIONAL WEATHER ROUNDUP
NATIONAL WEATHER SERVICE CHICAGO/ROMEOVILLE IL
1200 PM CST MON NOV 24 2014

NOTE: "FAIR" INDICATES FEW OR NO CLOUDS BELOW 12,000 FEET WITH NO
SIGNIFICANT WEATHER AND/OR OBSTRUCTIONS TO VISIBILITY.

* THESE STATIONS ARE NOT UNDER NWS QUALITY CONTROL. THEY ALSO MAY NOT
  REPORT WEATHER SUCH AS PRECIPITATION OR FOG.

ILZ001-002-007-009-015-016-024-241900-
NORTHWEST ILLINOIS

CITY           SKY/WX    TMP DP  RH WIND       PRES   REMARKS
MOLINE         CLOUDY    29  23  78 W26G36    29.48R WCI  14
6HR MIN TEMP:  29; 6HR MAX TEMP:  33; 6HR PCP:  0.22;

STERLING*      CLOUDY   N/A N/A N/A W28G35    29.41R
SAVANNA*       CLOUDY    30  25  84 W15G24    29.41R FOG     WCI  19
$$

ILZ003-004-008-010-011-017-018-241900-
NORTH CENTRAL ILLINOIS

CITY           SKY/WX    TMP DP  RH WIND       PRES   REMARKS
ROCKFORD       SNOW      30  27  88 W21G29    29.34R VSB 1/2 WCI  17
6HR MIN TEMP:  30; 6HR MAX TEMP:  41; 6HR PCP:  0.24;

FREEPORT*      LGT SNOW  28  27  94 W20G28    29.36R VSB 1   WCI  15
ROCHELLE*      LGT SNOW  29  28  95 W24G31    29.37R VSB 1   WCI  15
DE KALB*       CLOUDY    29  27  93 W25G39    29.34R WCI  14
PERU*          CLOUDY    32  29  89 W33G40    29.44R WCI  17
$$

ILZ005-006-012>014-019>023-241900-
NORTHEAST ILLINOIS

CITY           SKY/WX    TMP DP  RH WIND       PRES   REMARKS
CHICAGO-OHARE  SNOW      31  29  92 SW25G33   29.30R VSB 1/2 WCI  17
6HR MIN TEMP:  31; 6HR MAX TEMP:  47; 6HR PCP:  0.30;

CHICAGO-MIDWAY LGT SNOW  33  31  92 W25G32    29.34R VSB 1   WCI  20
6HR MIN TEMP:  33; 6HR MAX TEMP:  50; 6HR PCP:  0.25;

AURORA         LGT SNOW  32  27  81 W23G38    29.36R VSB 1   WCI  19
6HR MIN TEMP:  31; 6HR MAX TEMP:  47; 6HR PCP:  0.28;

LANSING*       LGT SNOW  32  31  96 W25G31    29.37R WCI  19
JOLIET*        LGT SNOW  32  29  90 W16G31    29.40R WCI  21
WAUKEGAN       SNOW      32  31  96 SW12G24   29.23R VSB 1/2 WCI  23
6HR MIN TEMP:  32; 6HR MAX TEMP:  46; 6HR PCP:  0.18;

DUPAGE AIRPORT SNOW      31  28  89 W21G32    29.33R VSB 1/2 WCI  18
6HR MIN TEMP:  31; 6HR MAX TEMP:  47; 6HR PCP:  0.22;

KANKAKEE*      CLOUDY    34  31  89 W23G36    29.46R WCI  22
WHEELING       SNOW      32  30  92 SW15G33   29.30R VSB 1/4 WCI  22
6HR MIN TEMP:  32; 6HR MAX TEMP:  48; 6HR PCP:  0.27;

MORRIS*        LGT SNOW  32  31  95 W23G36    29.40R WCI  20
ROMEOVILLE*    LGT SNOW  32  31  98 W26G37    29.38R WCI  18
NORTHERLY ISL    N/A     32  31  96 SW17        N/A  WCI  21
$$

LMZ740>746-241900-
SOUTHERN LAKE MICHIGAN

STATION/POSITION SKY/WX   TEMP    WIND        PRES    VSBY  WAVE
                          AIR SEA DIR/SP/G                  HT/PER
                          (F)     (DEG/KT/KT) (MB)    (MI)  (FT/S)
SOUTHERN BUOY              42 42  240/ 23/ 29  987.4R         3/ 4
WAUKEGAN HARBOR            33     250/ 21/ 27   N/A
HARRISON CRIB              31     240/ 26/ 37   N/A
BURNHAM HARBOR             31     220/ 16/ 22   N/A
CALUMET HARBOR             31     220/ 15/ 22  992.3R
MICHIGAN CITY              33     200/ 31/ 39   N/A
$$

ILZ025>027-034>036-040-047-049-050-058-095>099-241900-
WEST-CENTRAL ILLINOIS

CITY           SKY/WX    TMP DP  RH WIND       PRES   REMARKS
QUINCY         CLOUDY    33  24  69 W20G29    29.61R WCI  21
GALESBURG*     CLOUDY    30  27  87 W22G28    29.52R WCI  17
MACOMB*        CLOUDY    31  28  88 W26       29.58R WCI  17
JACKSONVILLE*  CLOUDY    35  27  70 W17G28    29.62R WCI  25
PITTSFIELD*    CLOUDY    35  29  77 SW15      29.64R WCI  25
$$

ILZ028>032-037-038-041>044-048-051>054-059>061-241900-
CENTRAL ILLINOIS

CITY           SKY/WX    TMP DP  RH WIND       PRES   REMARKS
PONTIAC        CLOUDY    33  31  91 W22G32    29.48R FOG     WCI  21
BLOOMINGTON    CLOUDY    32  30  92 W22G32    29.52R FOG     WCI  19
DECATUR        CLOUDY    35  28  75 W20G30    29.58R WCI  24
PEORIA         CLOUDY    33  27  78 W21G29    29.54R WCI  21
6HR MIN TEMP:  33; 6HR MAX TEMP:  37; 6HR PCP:  0.09;

LACON*         CLOUDY    31  27  83 W21G30    29.50R WCI  19
LINCOLN*       CLOUDY    34  29  80 W14G26    29.57R WCI  25
SPRINGFIELD    CLOUDY    34  34 100 W25G37    29.60R WCI  21
6HR MIN TEMP:  34; 6HR MAX TEMP:  36; 6HR PCP:  0.03;

TAYLORVILLE    CLOUDY    34  28  80 W15G25    29.61R WCI  24
$$

ILZ033-039-045-046-055>057-062-063-241900-
EAST-CENTRAL ILLINOIS

CITY           SKY/WX    TMP DP  RH WIND       PRES   REMARKS
CHAMPAIGN      CLOUDY    34  33  96 W24G35    29.55R WCI  21
DANVILLE*      CLOUDY    34  32  91 SW25G35   29.50R FOG     WCI  22
RANTOUL*       CLOUDY    36  32  87 W25G37    29.53R WCI  23
MATTOON        CLOUDY    37  28  70 W22G35    29.59R WCI  26
PARIS*         CLOUDY    37  32  85 W20G28    29.60R WCI  26
$$

ILZ079-100>102-241900-
SOUTHWEST ILLINOIS

CITY           SKY/WX    TMP DP  RH WIND       PRES   REMARKS
ALTON          CLOUDY    39  27  60 W17G31    29.68R WCI  30
BELLEVILLE     CLOUDY    41  31  67 W21       29.69R
CAHOKIA*       CLOUDY    41  28  60 W22G32    29.70R
SPARTA*        CLOUDY    41  29  62 W16G29    29.72R
$$

ILZ064>066-069>071-074>076-080>082-084>086-088>090-092>094-241900-
SOUTH-CENTRAL ILLINOIS

CITY           SKY/WX    TMP DP  RH WIND       PRES   REMARKS
CARBONDALE     MOSUNNY   46  33  60 W10G20    29.72F
6HR MIN TEMP:  41; 6HR MAX TEMP:  46;

CAIRO*         MOSUNNY   50  35  55 SW17      29.77S
EFFINGHAM*     CLOUDY    38  28  65 W16G24    29.65R WCI  29
MARION         PTSUNNY   46  32  57 W9        29.73S
MT. VERNON     CLOUDY    41  27  56 W16G24    29.71R
CENTRALIA*     CLOUDY    40  29  66 W20G28    29.69S
SALEM*           N/A     41  31  68 W20G31    29.68R
METROPOLIS*    CLOUDY    49  38  65 SW16G24   29.75S
$$

ILZ067-068-072-073-078-083-087-091-241900-
SOUTHEAST ILLINOIS

CITY           SKY/WX    TMP DP  RH WIND       PRES   REMARKS
LAWRENCEVILLE  CLOUDY    44  33  65 W25G32    29.66R
FLORA*         MOSUNNY   39  30  70 W20G28    29.69R WCI  30
FAIRFIELD*     CLOUDY    42  29  61 W16G29    29.70R
HARRISBURG*    PTSUNNY   45  33  63 W13       29.74R
ROBINSON*      CLOUDY    39  33  78 W22G29    29.66R WCI  29
CARMI*         CLOUDY    45  36  70 W16G28    29.71R
$$

ABBREVIATIONS USED IN REMARKS
   TC - TEMPERATURE IN CELSIUS
  WCI - WIND CHILL INDEX
   HX - HEAT INDEX
  VSB - VISIBILITY
$$



USA.gov is the U.S. government's official web portal to all federal, state and local government web resources and services.